Year,Month,Day,Hour,Minute,Value (Times are PST for temperature in C)
2018,08,09,00,00,22.60
2018,08,09,00,01,22.50
2018,08,09,00,02,22.50
2018,08,09,00,03,22.50
2018,08,09,00,04,22.50
2018,08,09,00,05,22.40
2018,08,09,00,06,22.40
2018,08,09,00,07,22.40
2018,08,09,00,08,22.40
2018,08,09,00,09,22.30
2018,08,09,00,10,22.30
2018,08,09,00,11,22.30
2018,08,09,00,12,22.30
2018,08,09,00,13,22.20
2018,08,09,00,14,22.20
2018,08,09,00,15,22.20
2018,08,09,00,16,22.20
2018,08,09,00,17,22.20
2018,08,09,00,18,22.20
2018,08,09,00,19,22.20
2018,08,09,00,20,22.20
2018,08,09,00,21,22.20
2018,08,09,00,22,22.20
2018,08,09,00,23,22.20
2018,08,09,00,24,22.10
2018,08,09,00,25,22.10
2018,08,09,00,26,22.10
2018,08,09,00,27,22.00
2018,08,09,00,28,22.00
2018,08,09,00,29,21.90
2018,08,09,00,30,21.90
2018,08,09,00,31,21.90
2018,08,09,00,32,21.90
2018,08,09,00,33,21.90
2018,08,09,00,34,21.90
2018,08,09,00,35,21.90
2018,08,09,00,36,21.90
2018,08,09,00,37,21.90
2018,08,09,00,38,21.90
2018,08,09,00,39,21.90
2018,08,09,00,40,21.90
2018,08,09,00,41,21.90
2018,08,09,00,42,22.00
2018,08,09,00,43,22.00
2018,08,09,00,44,22.00
2018,08,09,00,45,22.10
2018,08,09,00,46,22.00
2018,08,09,00,47,22.00
2018,08,09,00,48,22.00
2018,08,09,00,49,22.00
2018,08,09,00,50,22.00
2018,08,09,00,51,22.00
2018,08,09,00,52,21.90
2018,08,09,00,53,21.90
2018,08,09,00,54,21.90
2018,08,09,00,55,21.90
2018,08,09,00,56,21.90
2018,08,09,00,57,21.90
2018,08,09,00,58,21.90
2018,08,09,00,59,21.90
2018,08,09,01,00,21.90
2018,08,09,01,01,21.90
2018,08,09,01,02,21.90
2018,08,09,01,03,21.90
2018,08,09,01,04,21.90
2018,08,09,01,05,21.80
2018,08,09,01,06,21.80
2018,08,09,01,07,21.80
2018,08,09,01,08,21.80
2018,08,09,01,09,21.80
2018,08,09,01,10,21.80
2018,08,09,01,11,21.80
2018,08,09,01,12,21.80
2018,08,09,01,13,21.80
2018,08,09,01,14,21.70
2018,08,09,01,15,21.70
2018,08,09,01,16,21.70
2018,08,09,01,17,21.70
2018,08,09,01,18,21.70
2018,08,09,01,19,21.70
2018,08,09,01,20,21.70
2018,08,09,01,21,21.70
2018,08,09,01,22,21.70
2018,08,09,01,23,21.70
2018,08,09,01,24,21.70
2018,08,09,01,25,21.70
2018,08,09,01,26,21.70
2018,08,09,01,27,21.70
2018,08,09,01,28,21.70
2018,08,09,01,29,21.70
2018,08,09,01,30,21.70
2018,08,09,01,31,21.70
2018,08,09,01,32,21.70
2018,08,09,01,33,21.70
2018,08,09,01,34,21.70
2018,08,09,01,35,21.70
2018,08,09,01,36,21.70
2018,08,09,01,37,21.60
2018,08,09,01,38,21.60
2018,08,09,01,39,21.60
2018,08,09,01,40,21.60
2018,08,09,01,41,21.70
2018,08,09,01,42,21.70
2018,08,09,01,43,21.70
2018,08,09,01,44,21.70
2018,08,09,01,45,21.70
2018,08,09,01,46,21.70
2018,08,09,01,47,21.70
2018,08,09,01,48,21.70
2018,08,09,01,49,21.70
2018,08,09,01,50,21.70
2018,08,09,01,51,21.70
2018,08,09,01,52,21.70
2018,08,09,01,53,21.70
2018,08,09,01,54,21.70
2018,08,09,01,55,21.70
2018,08,09,01,56,21.70
2018,08,09,01,57,21.80
2018,08,09,01,58,21.80
2018,08,09,01,59,21.80
2018,08,09,02,00,21.80
2018,08,09,02,01,21.80
2018,08,09,02,02,21.80
2018,08,09,02,03,21.80
2018,08,09,02,04,21.80
2018,08,09,02,05,21.80
2018,08,09,02,06,21.80
2018,08,09,02,07,21.70
2018,08,09,02,08,21.70
2018,08,09,02,09,21.70
2018,08,09,02,10,21.70
2018,08,09,02,11,21.70
2018,08,09,02,12,21.70
2018,08,09,02,13,21.60
2018,08,09,02,14,21.60
2018,08,09,02,15,21.60
2018,08,09,02,16,21.60
2018,08,09,02,17,21.70
2018,08,09,02,18,21.70
2018,08,09,02,19,21.70
2018,08,09,02,20,21.70
2018,08,09,02,21,21.70
2018,08,09,02,22,21.70
2018,08,09,02,23,21.60
2018,08,09,02,24,21.60
2018,08,09,02,25,21.60
2018,08,09,02,26,21.60
2018,08,09,02,27,21.60
2018,08,09,02,28,21.60
2018,08,09,02,29,21.60
2018,08,09,02,30,21.70
2018,08,09,02,31,21.70
2018,08,09,02,32,21.70
2018,08,09,02,33,21.60
2018,08,09,02,34,21.60
2018,08,09,02,35,21.60
2018,08,09,02,36,21.60
2018,08,09,02,37,21.60
2018,08,09,02,38,21.60
2018,08,09,02,39,21.60
2018,08,09,02,40,21.60
2018,08,09,02,41,21.60
2018,08,09,02,42,21.60
2018,08,09,02,43,21.60
2018,08,09,02,44,21.60
2018,08,09,02,45,21.60
2018,08,09,02,46,21.50
2018,08,09,02,47,21.50
2018,08,09,02,48,21.50
2018,08,09,02,49,21.60
2018,08,09,02,50,21.60
2018,08,09,02,51,21.60
2018,08,09,02,52,21.60
2018,08,09,02,53,21.50
2018,08,09,02,54,21.50
2018,08,09,02,55,21.50
2018,08,09,02,56,21.50
2018,08,09,02,57,21.50
2018,08,09,02,58,21.50
2018,08,09,02,59,21.40
2018,08,09,03,00,21.50
2018,08,09,03,01,21.40
2018,08,09,03,02,21.40
2018,08,09,03,03,21.40
2018,08,09,03,04,21.40
2018,08,09,03,05,21.40
2018,08,09,03,06,21.40
2018,08,09,03,07,21.40
2018,08,09,03,08,21.40
2018,08,09,03,09,21.40
2018,08,09,03,10,21.40
2018,08,09,03,11,21.30
2018,08,09,03,12,21.30
2018,08,09,03,13,21.30
2018,08,09,03,14,21.30
2018,08,09,03,15,21.40
2018,08,09,03,16,21.40
2018,08,09,03,17,21.40
2018,08,09,03,18,21.40
2018,08,09,03,19,21.40
2018,08,09,03,20,21.40
2018,08,09,03,21,21.40
2018,08,09,03,22,21.40
2018,08,09,03,23,21.40
2018,08,09,03,24,21.40
2018,08,09,03,25,21.40
2018,08,09,03,26,21.40
2018,08,09,03,27,21.40
2018,08,09,03,28,21.40
2018,08,09,03,29,21.40
2018,08,09,03,30,21.40
2018,08,09,03,31,21.40
2018,08,09,03,32,21.40
2018,08,09,03,33,21.40
2018,08,09,03,34,21.40
2018,08,09,03,35,21.40
2018,08,09,03,36,21.40
2018,08,09,03,37,21.40
2018,08,09,03,38,21.30
2018,08,09,03,39,21.30
2018,08,09,03,40,21.30
2018,08,09,03,41,21.20
2018,08,09,03,42,21.20
2018,08,09,03,43,21.20
2018,08,09,03,44,21.20
2018,08,09,03,45,21.20
2018,08,09,03,46,21.10
2018,08,09,03,47,21.10
2018,08,09,03,48,21.10
2018,08,09,03,49,21.20
2018,08,09,03,50,21.20
2018,08,09,03,51,21.20
2018,08,09,03,52,21.20
2018,08,09,03,53,21.30
2018,08,09,03,54,21.30
2018,08,09,03,55,21.30
2018,08,09,03,56,21.30
2018,08,09,03,57,21.30
2018,08,09,03,58,21.30
2018,08,09,03,59,21.30
2018,08,09,04,00,21.20
2018,08,09,04,01,21.20
2018,08,09,04,02,21.20
2018,08,09,04,03,21.10
2018,08,09,04,04,21.10
2018,08,09,04,05,21.10
2018,08,09,04,06,21.10
2018,08,09,04,07,21.10
2018,08,09,04,08,21.10
2018,08,09,04,09,21.10
2018,08,09,04,10,21.10
2018,08,09,04,11,21.10
2018,08,09,04,12,21.10
2018,08,09,04,13,21.10
2018,08,09,04,14,21.10
2018,08,09,04,15,21.10
2018,08,09,04,16,21.10
2018,08,09,04,17,21.10
2018,08,09,04,18,21.00
2018,08,09,04,19,21.00
2018,08,09,04,20,21.00
2018,08,09,04,21,20.90
2018,08,09,04,22,20.90
2018,08,09,04,23,20.90
2018,08,09,04,24,20.90
2018,08,09,04,25,20.90
2018,08,09,04,26,20.90
2018,08,09,04,27,20.90
2018,08,09,04,28,20.90
2018,08,09,04,29,20.90
2018,08,09,04,30,20.90
2018,08,09,04,31,20.90
2018,08,09,04,32,20.90
2018,08,09,04,33,20.90
2018,08,09,04,34,20.90
2018,08,09,04,35,20.90
2018,08,09,04,36,20.90
2018,08,09,04,37,20.90
2018,08,09,04,38,20.90
2018,08,09,04,39,20.90
2018,08,09,04,40,20.90
2018,08,09,04,41,20.80
2018,08,09,04,42,20.80
2018,08,09,04,43,20.80
2018,08,09,04,44,20.70
2018,08,09,04,45,20.70
2018,08,09,04,46,20.70
2018,08,09,04,47,20.60
2018,08,09,04,48,20.50
2018,08,09,04,49,20.50
2018,08,09,04,50,20.40
2018,08,09,04,51,20.40
2018,08,09,04,52,20.40
2018,08,09,04,53,20.30
2018,08,09,04,54,20.30
2018,08,09,04,55,20.30
2018,08,09,04,56,20.30
2018,08,09,04,57,20.30
2018,08,09,04,58,20.30
2018,08,09,04,59,20.20
2018,08,09,05,00,20.20
2018,08,09,05,01,20.10
2018,08,09,05,02,20.00
2018,08,09,05,03,19.90
2018,08,09,05,04,19.80
2018,08,09,05,05,19.70
2018,08,09,05,06,19.60
2018,08,09,05,07,19.50
2018,08,09,05,08,19.40
2018,08,09,05,09,19.30
2018,08,09,05,10,19.20
2018,08,09,05,11,19.00
2018,08,09,05,12,18.90
2018,08,09,05,13,18.80
2018,08,09,05,14,18.70
2018,08,09,05,15,18.50
2018,08,09,05,16,18.30
2018,08,09,05,17,18.20
2018,08,09,05,18,18.10
2018,08,09,05,19,17.90
2018,08,09,05,20,17.80
2018,08,09,05,21,17.60
2018,08,09,05,22,17.40
2018,08,09,05,23,17.30
2018,08,09,05,24,17.20
2018,08,09,05,25,17.00
2018,08,09,05,26,16.90
2018,08,09,05,27,16.80
2018,08,09,05,28,16.70
2018,08,09,05,29,16.60
2018,08,09,05,30,16.50
2018,08,09,05,31,16.40
2018,08,09,05,32,16.30
2018,08,09,05,33,16.20
2018,08,09,05,34,16.10
2018,08,09,05,35,16.10
2018,08,09,05,36,16.00
2018,08,09,05,37,15.90
2018,08,09,05,38,15.80
2018,08,09,05,39,15.70
2018,08,09,05,40,15.60
2018,08,09,05,41,15.60
2018,08,09,05,42,15.50
2018,08,09,05,43,15.40
2018,08,09,05,44,15.40
2018,08,09,05,45,15.30
2018,08,09,05,46,15.30
2018,08,09,05,47,15.20
2018,08,09,05,48,15.10
2018,08,09,05,49,15.10
2018,08,09,05,50,15.00
2018,08,09,05,51,15.00
2018,08,09,05,52,14.90
2018,08,09,05,53,14.90
2018,08,09,05,54,14.80
2018,08,09,05,55,14.80
2018,08,09,05,56,14.80
2018,08,09,05,57,14.70
2018,08,09,05,58,14.70
2018,08,09,05,59,14.70
2018,08,09,06,00,14.60
2018,08,09,06,01,14.60
2018,08,09,06,02,14.60
2018,08,09,06,03,14.50
2018,08,09,06,04,14.50
2018,08,09,06,05,14.40
2018,08,09,06,06,14.40
2018,08,09,06,07,14.40
2018,08,09,06,08,14.40
2018,08,09,06,09,14.30
2018,08,09,06,10,14.30
2018,08,09,06,11,14.30
2018,08,09,06,12,14.30
2018,08,09,06,13,14.30
2018,08,09,06,14,14.20
2018,08,09,06,15,14.20
2018,08,09,06,16,14.20
2018,08,09,06,17,14.20
2018,08,09,06,18,14.20
2018,08,09,06,19,14.20
2018,08,09,06,20,14.20
2018,08,09,06,21,14.20
2018,08,09,06,22,14.20
2018,08,09,06,23,14.10
2018,08,09,06,24,14.10
2018,08,09,06,25,14.10
2018,08,09,06,26,14.10
2018,08,09,06,27,14.10
2018,08,09,06,28,14.10
2018,08,09,06,29,14.10
2018,08,09,06,30,14.10
2018,08,09,06,31,14.10
2018,08,09,06,32,14.10
2018,08,09,06,33,14.10
2018,08,09,06,34,14.10
2018,08,09,06,35,14.10
2018,08,09,06,36,14.20
2018,08,09,06,37,14.20
2018,08,09,06,38,14.20
2018,08,09,06,39,14.20
2018,08,09,06,40,14.20
2018,08,09,06,41,14.20
2018,08,09,06,42,14.20
2018,08,09,06,43,14.20
2018,08,09,06,44,14.20
2018,08,09,06,45,14.20
2018,08,09,06,46,14.30
2018,08,09,06,47,14.30
2018,08,09,06,48,14.30
2018,08,09,06,49,14.30
2018,08,09,06,50,14.30
2018,08,09,06,51,14.30
2018,08,09,06,52,14.40
2018,08,09,06,53,14.40
2018,08,09,06,54,14.40
2018,08,09,06,55,14.50
2018,08,09,06,56,14.50
2018,08,09,06,57,14.50
2018,08,09,06,58,14.50
2018,08,09,06,59,14.60
2018,08,09,07,00,14.60
2018,08,09,07,01,14.60
2018,08,09,07,02,14.70
2018,08,09,07,03,14.70
2018,08,09,07,04,14.80
2018,08,09,07,05,14.90
2018,08,09,07,06,14.90
2018,08,09,07,07,15.00
2018,08,09,07,08,15.10
2018,08,09,07,09,15.10
2018,08,09,07,10,15.20
2018,08,09,07,11,15.20
2018,08,09,07,12,15.30
2018,08,09,07,13,15.30
2018,08,09,07,14,15.30
2018,08,09,07,15,15.40
2018,08,09,07,16,15.40
2018,08,09,07,17,15.40
2018,08,09,07,18,15.50
2018,08,09,07,19,15.50
2018,08,09,07,20,15.60
2018,08,09,07,21,15.60
2018,08,09,07,22,15.70
2018,08,09,07,23,15.80
2018,08,09,07,24,15.80
2018,08,09,07,25,15.90
2018,08,09,07,26,15.90
2018,08,09,07,27,16.00
2018,08,09,07,28,16.10
2018,08,09,07,29,16.10
2018,08,09,07,30,16.20
2018,08,09,07,31,16.20
2018,08,09,07,32,16.30
2018,08,09,07,33,16.30
2018,08,09,07,34,16.40
2018,08,09,07,35,16.40
2018,08,09,07,36,16.50
2018,08,09,07,37,16.50
2018,08,09,07,38,16.60
2018,08,09,07,39,16.60
2018,08,09,07,40,16.70
2018,08,09,07,41,16.70
2018,08,09,07,42,16.80
2018,08,09,07,43,16.80
2018,08,09,07,44,16.80
2018,08,09,07,45,16.90
2018,08,09,07,46,17.00
2018,08,09,07,47,17.00
2018,08,09,07,48,17.10
2018,08,09,07,49,17.20
2018,08,09,07,50,17.20
2018,08,09,07,51,17.30
2018,08,09,07,52,17.30
2018,08,09,07,53,17.40
2018,08,09,07,54,17.40
2018,08,09,07,55,17.40
2018,08,09,07,56,17.50
2018,08,09,07,57,17.50
2018,08,09,07,58,17.50
2018,08,09,07,59,17.50
2018,08,09,08,00,17.50
2018,08,09,08,01,17.50
2018,08,09,08,02,17.60
2018,08,09,08,03,17.60
2018,08,09,08,04,17.60
2018,08,09,08,05,17.60
2018,08,09,08,06,17.60
2018,08,09,08,07,17.60
2018,08,09,08,08,17.70
2018,08,09,08,09,17.70
2018,08,09,08,10,17.70
2018,08,09,08,11,17.70
2018,08,09,08,12,17.70
2018,08,09,08,13,17.70
2018,08,09,08,14,17.70
2018,08,09,08,15,17.70
2018,08,09,08,16,17.70
2018,08,09,08,17,17.70
2018,08,09,08,18,17.70
2018,08,09,08,19,17.70
2018,08,09,08,20,17.70
2018,08,09,08,21,17.70
2018,08,09,08,22,17.70
2018,08,09,08,23,17.70
2018,08,09,08,24,17.80
2018,08,09,08,25,17.80
2018,08,09,08,26,17.80
2018,08,09,08,27,17.80
2018,08,09,08,28,17.80
2018,08,09,08,29,17.90
2018,08,09,08,30,18.00
2018,08,09,08,31,18.10
2018,08,09,08,32,18.20
2018,08,09,08,33,18.50
2018,08,09,08,34,18.60
2018,08,09,08,35,18.80
2018,08,09,08,36,18.90
2018,08,09,08,37,19.00
2018,08,09,08,38,19.10
2018,08,09,08,39,19.20
2018,08,09,08,40,19.40
2018,08,09,08,41,19.50
2018,08,09,08,42,19.80
2018,08,09,08,43,20.00
2018,08,09,08,44,20.20
2018,08,09,08,45,20.40
2018,08,09,08,46,20.50
2018,08,09,08,47,20.70
2018,08,09,08,48,20.90
2018,08,09,08,49,21.00
2018,08,09,08,50,21.20
2018,08,09,08,51,21.40
2018,08,09,08,52,21.60
2018,08,09,08,53,21.80
2018,08,09,08,54,22.00
2018,08,09,08,55,22.20
2018,08,09,08,56,22.30
2018,08,09,08,57,22.40
2018,08,09,08,58,22.50
2018,08,09,08,59,22.60
2018,08,09,09,00,22.70
2018,08,09,09,01,22.70
2018,08,09,09,02,22.80
2018,08,09,09,03,22.80
2018,08,09,09,04,22.80
2018,08,09,09,05,22.90
2018,08,09,09,06,23.00
2018,08,09,09,07,23.00
2018,08,09,09,08,23.10
2018,08,09,09,09,23.20
2018,08,09,09,10,23.20
2018,08,09,09,11,23.20
2018,08,09,09,12,23.20
2018,08,09,09,13,23.20
2018,08,09,09,14,23.30
2018,08,09,09,15,23.30
2018,08,09,09,16,23.30
2018,08,09,09,17,23.30
2018,08,09,09,18,23.40
2018,08,09,09,19,23.40
2018,08,09,09,20,23.50
2018,08,09,09,21,23.50
2018,08,09,09,22,23.50
2018,08,09,09,23,23.50
2018,08,09,09,24,23.50
2018,08,09,09,25,23.50
2018,08,09,09,26,23.60
2018,08,09,09,27,23.60
2018,08,09,09,28,23.60
2018,08,09,09,29,23.60
2018,08,09,09,30,23.70
2018,08,09,09,31,23.70
2018,08,09,09,32,23.80
2018,08,09,09,33,23.80
2018,08,09,09,34,23.80
2018,08,09,09,35,23.80
2018,08,09,09,36,23.90
2018,08,09,09,37,23.90
2018,08,09,09,38,23.90
2018,08,09,09,39,23.90
2018,08,09,09,40,23.90
2018,08,09,09,41,24.00
2018,08,09,09,42,24.00
2018,08,09,09,43,24.10
2018,08,09,09,44,24.10
2018,08,09,09,45,24.20
2018,08,09,09,46,24.30
2018,08,09,09,47,24.30
2018,08,09,09,48,24.30
2018,08,09,09,49,24.30
2018,08,09,09,50,24.30
2018,08,09,09,51,24.40
2018,08,09,09,52,24.40
2018,08,09,09,53,24.50
2018,08,09,09,54,24.60
2018,08,09,09,55,24.50
2018,08,09,09,56,24.50
2018,08,09,09,57,24.30
2018,08,09,09,58,24.10
2018,08,09,09,59,23.90
2018,08,09,10,00,23.50
2018,08,09,10,01,23.20
2018,08,09,10,02,22.80
2018,08,09,10,03,22.60
2018,08,09,10,04,22.30
2018,08,09,10,05,22.10
2018,08,09,10,06,22.00
2018,08,09,10,07,21.80
2018,08,09,10,08,21.70
2018,08,09,10,09,21.40
2018,08,09,10,10,21.20
2018,08,09,10,11,20.90
2018,08,09,10,12,20.70
2018,08,09,10,13,20.60
2018,08,09,10,14,20.40
2018,08,09,10,15,20.30
2018,08,09,10,16,20.20
2018,08,09,10,17,20.10
2018,08,09,10,18,20.10
2018,08,09,10,19,20.10
2018,08,09,10,20,20.10
2018,08,09,10,21,20.10
2018,08,09,10,22,20.10
2018,08,09,10,23,20.10
2018,08,09,10,24,20.10
2018,08,09,10,25,20.10
2018,08,09,10,26,20.10
2018,08,09,10,27,20.20
2018,08,09,10,28,20.20
2018,08,09,10,29,20.30
2018,08,09,10,30,20.40
2018,08,09,10,31,20.40
2018,08,09,10,32,20.50
2018,08,09,10,33,20.60
2018,08,09,10,34,20.60
2018,08,09,10,35,20.70
2018,08,09,10,36,20.80
2018,08,09,10,37,20.80
2018,08,09,10,38,20.90
2018,08,09,10,39,21.00
2018,08,09,10,40,21.10
2018,08,09,10,41,21.20
2018,08,09,10,42,21.20
2018,08,09,10,43,21.30
2018,08,09,10,44,21.40
2018,08,09,10,45,21.50
2018,08,09,10,46,21.50
2018,08,09,10,47,21.60
2018,08,09,10,48,21.60
2018,08,09,10,49,21.60
2018,08,09,10,50,21.60
2018,08,09,10,51,21.60
2018,08,09,10,52,21.60
2018,08,09,10,53,21.70
2018,08,09,10,54,21.70
2018,08,09,10,55,21.80
2018,08,09,10,56,21.80
2018,08,09,10,57,21.90
2018,08,09,10,58,21.90
2018,08,09,10,59,22.00
2018,08,09,11,00,22.10
2018,08,09,11,01,22.20
2018,08,09,11,02,22.20
2018,08,09,11,03,22.20
2018,08,09,11,04,22.30
2018,08,09,11,05,22.30
2018,08,09,11,06,22.30
2018,08,09,11,07,22.30
2018,08,09,11,08,22.40
2018,08,09,11,09,22.40
2018,08,09,11,10,22.30
2018,08,09,11,11,22.30
2018,08,09,11,12,22.20
2018,08,09,11,13,22.20
2018,08,09,11,14,22.10
2018,08,09,11,15,22.10
2018,08,09,11,16,22.00
2018,08,09,11,17,22.00
2018,08,09,11,18,22.10
2018,08,09,11,19,22.10
2018,08,09,11,20,22.20
2018,08,09,11,21,22.20
2018,08,09,11,22,22.30
2018,08,09,11,23,22.30
2018,08,09,11,24,22.40
2018,08,09,11,25,22.50
2018,08,09,11,26,22.60
2018,08,09,11,27,22.70
2018,08,09,11,28,22.80
2018,08,09,11,29,22.90
2018,08,09,11,30,22.90
2018,08,09,11,31,23.00
2018,08,09,11,32,23.10
2018,08,09,11,33,23.10
2018,08,09,11,34,23.20
2018,08,09,11,35,23.30
2018,08,09,11,36,23.40
2018,08,09,11,37,23.60
2018,08,09,11,38,23.60
2018,08,09,11,39,23.70
2018,08,09,11,40,23.70
2018,08,09,11,41,23.80
2018,08,09,11,42,23.80
2018,08,09,11,43,23.90
2018,08,09,11,44,23.90
2018,08,09,11,45,23.90
2018,08,09,11,46,23.90
2018,08,09,11,47,24.00
2018,08,09,11,48,24.00
2018,08,09,11,49,23.90
2018,08,09,11,50,23.90
2018,08,09,11,51,23.90
2018,08,09,11,52,23.80
2018,08,09,11,53,23.70
2018,08,09,11,54,23.70
2018,08,09,11,55,23.70
2018,08,09,11,56,23.70
2018,08,09,11,57,23.70
2018,08,09,11,58,23.70
2018,08,09,11,59,23.70
2018,08,09,12,00,23.70
2018,08,09,12,01,23.70
2018,08,09,12,02,23.80
2018,08,09,12,03,23.80
2018,08,09,12,04,23.90
2018,08,09,12,05,23.90
2018,08,09,12,06,24.00
2018,08,09,12,07,24.00
2018,08,09,12,08,24.10
2018,08,09,12,09,24.20
2018,08,09,12,10,24.30
2018,08,09,12,11,24.40
2018,08,09,12,12,24.50
2018,08,09,12,13,24.60
2018,08,09,12,14,24.60
2018,08,09,12,15,24.60
2018,08,09,12,16,24.50
2018,08,09,12,17,24.40
2018,08,09,12,18,24.40
2018,08,09,12,19,24.30
2018,08,09,12,20,24.30
2018,08,09,12,21,24.30
2018,08,09,12,22,24.30
2018,08,09,12,23,24.40
2018,08,09,12,24,24.40
2018,08,09,12,25,24.50
2018,08,09,12,26,24.60
2018,08,09,12,27,24.70
2018,08,09,12,28,24.80
2018,08,09,12,29,24.90
2018,08,09,12,30,25.00
2018,08,09,12,31,25.20
2018,08,09,12,32,25.30
2018,08,09,12,33,25.40
2018,08,09,12,34,25.50
2018,08,09,12,35,25.60
2018,08,09,12,36,25.60
2018,08,09,12,37,25.60
2018,08,09,12,38,25.70
2018,08,09,12,39,25.70
2018,08,09,12,40,25.70
2018,08,09,12,41,25.70
2018,08,09,12,42,25.70
2018,08,09,12,43,25.70
2018,08,09,12,44,25.70
2018,08,09,12,45,25.70
2018,08,09,12,46,25.70
2018,08,09,12,47,25.60
2018,08,09,12,48,25.60
2018,08,09,12,49,25.50
2018,08,09,12,50,25.40
2018,08,09,12,51,25.40
2018,08,09,12,52,25.40
2018,08,09,12,53,25.40
2018,08,09,12,54,25.40
2018,08,09,12,55,25.40
2018,08,09,12,56,25.40
2018,08,09,12,57,25.30
2018,08,09,12,58,25.30
2018,08,09,12,59,25.30
2018,08,09,13,00,25.20
2018,08,09,13,01,25.10
2018,08,09,13,02,25.00
2018,08,09,13,03,25.00
2018,08,09,13,04,24.90
2018,08,09,13,05,24.80
2018,08,09,13,06,24.80
2018,08,09,13,07,24.80
2018,08,09,13,08,24.80
2018,08,09,13,09,24.80
2018,08,09,13,10,24.80
2018,08,09,13,11,24.80
2018,08,09,13,12,24.80
2018,08,09,13,13,24.80
2018,08,09,13,14,24.80
2018,08,09,13,15,24.80
2018,08,09,13,16,24.80
2018,08,09,13,17,24.80
2018,08,09,13,18,24.70
2018,08,09,13,19,24.70
2018,08,09,13,20,24.70
2018,08,09,13,21,24.70
2018,08,09,13,22,24.80
2018,08,09,13,23,24.80
2018,08,09,13,24,24.90
2018,08,09,13,25,24.90
2018,08,09,13,26,25.00
2018,08,09,13,27,25.10
2018,08,09,13,28,25.10
2018,08,09,13,29,25.20
2018,08,09,13,30,25.30
2018,08,09,13,31,25.40
2018,08,09,13,32,25.40
2018,08,09,13,33,25.50
2018,08,09,13,34,25.60
2018,08,09,13,35,25.70
2018,08,09,13,36,25.80
2018,08,09,13,37,25.80
2018,08,09,13,38,25.90
2018,08,09,13,39,26.00
2018,08,09,13,40,26.10
2018,08,09,13,41,26.20
2018,08,09,13,42,26.20
2018,08,09,13,43,26.30
2018,08,09,13,44,26.40
2018,08,09,13,45,26.40
2018,08,09,13,46,26.40
2018,08,09,13,47,26.50
2018,08,09,13,48,26.50
2018,08,09,13,49,26.40
2018,08,09,13,50,26.40
2018,08,09,13,51,26.30
2018,08,09,13,52,26.30
2018,08,09,13,53,26.20
2018,08,09,13,54,26.20
2018,08,09,13,55,26.20
2018,08,09,13,56,26.20
2018,08,09,13,57,26.10
2018,08,09,13,58,26.10
2018,08,09,13,59,26.00
2018,08,09,14,00,25.90
2018,08,09,14,01,25.80
2018,08,09,14,02,25.80
2018,08,09,14,03,25.80
2018,08,09,14,04,25.80
2018,08,09,14,05,25.80
2018,08,09,14,06,25.80
2018,08,09,14,07,25.70
2018,08,09,14,08,25.70
2018,08,09,14,09,25.70
2018,08,09,14,10,25.60
2018,08,09,14,11,25.60
2018,08,09,14,12,25.60
2018,08,09,14,13,25.60
2018,08,09,14,14,25.60
2018,08,09,14,15,25.60
2018,08,09,14,16,25.60
2018,08,09,14,17,25.70
2018,08,09,14,18,25.70
2018,08,09,14,19,25.80
2018,08,09,14,20,26.00
2018,08,09,14,21,26.10
2018,08,09,14,22,26.20
2018,08,09,14,23,26.40
2018,08,09,14,24,26.60
2018,08,09,14,25,26.80
2018,08,09,14,26,27.00
2018,08,09,14,27,27.20
2018,08,09,14,28,27.40
2018,08,09,14,29,27.50
2018,08,09,14,30,27.60
2018,08,09,14,31,27.70
2018,08,09,14,32,27.70
2018,08,09,14,33,27.70
2018,08,09,14,34,27.60
2018,08,09,14,35,27.60
2018,08,09,14,36,27.50
2018,08,09,14,37,27.50
2018,08,09,14,38,27.40
2018,08,09,14,39,27.40
2018,08,09,14,40,27.40
2018,08,09,14,41,27.30
2018,08,09,14,42,27.30
2018,08,09,14,43,27.30
2018,08,09,14,44,27.20
2018,08,09,14,45,27.20
2018,08,09,14,46,27.20
2018,08,09,14,47,27.20
2018,08,09,14,48,27.30
2018,08,09,14,49,27.30
2018,08,09,14,50,27.40
2018,08,09,14,51,27.60
2018,08,09,14,52,27.80
2018,08,09,14,53,28.00
2018,08,09,14,54,28.20
2018,08,09,14,55,28.30
2018,08,09,14,56,28.40
2018,08,09,14,57,28.50
2018,08,09,14,58,28.60
2018,08,09,14,59,28.80
2018,08,09,15,00,28.90
2018,08,09,15,01,29.10
2018,08,09,15,02,29.30
2018,08,09,15,03,29.40
2018,08,09,15,04,29.60
2018,08,09,15,05,29.80
2018,08,09,15,06,29.90
2018,08,09,15,07,30.00
2018,08,09,15,08,30.10
2018,08,09,15,09,30.20
2018,08,09,15,10,30.30
2018,08,09,15,11,30.30
2018,08,09,15,12,30.30
2018,08,09,15,13,30.30
2018,08,09,15,14,30.30
2018,08,09,15,15,30.30
2018,08,09,15,16,30.30
2018,08,09,15,17,30.30
2018,08,09,15,18,30.30
2018,08,09,15,19,30.40
2018,08,09,15,20,30.40
2018,08,09,15,21,30.40
2018,08,09,15,22,30.30
2018,08,09,15,23,30.30
2018,08,09,15,24,30.40
2018,08,09,15,25,30.40
2018,08,09,15,26,30.50
2018,08,09,15,27,30.50
2018,08,09,15,28,30.60
2018,08,09,15,29,30.60
2018,08,09,15,30,30.60
2018,08,09,15,31,30.50
2018,08,09,15,32,30.50
2018,08,09,15,33,30.30
2018,08,09,15,34,30.30
2018,08,09,15,35,30.30
2018,08,09,15,36,30.20
2018,08,09,15,37,30.20
2018,08,09,15,38,30.20
2018,08,09,15,39,30.10
2018,08,09,15,40,30.10
2018,08,09,15,41,30.00
2018,08,09,15,42,30.00
2018,08,09,15,43,30.00
2018,08,09,15,44,29.90
2018,08,09,15,45,29.90
2018,08,09,15,46,29.90
2018,08,09,15,47,29.90
2018,08,09,15,48,29.90
2018,08,09,15,49,29.90
2018,08,09,15,50,29.90
2018,08,09,15,51,29.80
2018,08,09,15,52,29.80
2018,08,09,15,53,29.80
2018,08,09,15,54,29.80
2018,08,09,15,55,29.80
2018,08,09,15,56,29.80
2018,08,09,15,57,29.80
2018,08,09,15,58,29.80
2018,08,09,15,59,29.80
2018,08,09,16,00,29.80
2018,08,09,16,01,29.80
2018,08,09,16,02,29.70
2018,08,09,16,03,29.70
2018,08,09,16,04,29.70
2018,08,09,16,05,29.70
2018,08,09,16,06,29.80
2018,08,09,16,07,29.80
2018,08,09,16,08,29.80
2018,08,09,16,09,29.90
2018,08,09,16,10,29.90
2018,08,09,16,11,30.00
2018,08,09,16,12,30.00
2018,08,09,16,13,30.00
2018,08,09,16,14,30.00
2018,08,09,16,15,30.00
2018,08,09,16,16,30.00
2018,08,09,16,17,30.00
2018,08,09,16,18,30.10
2018,08,09,16,19,30.10
2018,08,09,16,20,30.10
2018,08,09,16,21,30.20
2018,08,09,16,22,30.20
2018,08,09,16,23,30.20
2018,08,09,16,24,30.20
2018,08,09,16,25,30.20
2018,08,09,16,26,30.10
2018,08,09,16,27,30.10
2018,08,09,16,28,30.00
2018,08,09,16,29,29.90
2018,08,09,16,30,29.90
2018,08,09,16,31,29.80
2018,08,09,16,32,29.80
2018,08,09,16,33,29.80
2018,08,09,16,34,29.80
2018,08,09,16,35,29.80
2018,08,09,16,36,29.80
2018,08,09,16,37,29.70
2018,08,09,16,38,29.70
2018,08,09,16,39,29.70
2018,08,09,16,40,29.70
2018,08,09,16,41,29.60
2018,08,09,16,42,29.50
2018,08,09,16,43,29.40
2018,08,09,16,44,29.40
2018,08,09,16,45,29.40
2018,08,09,16,46,29.40
2018,08,09,16,47,29.30
2018,08,09,16,48,29.30
2018,08,09,16,49,29.20
2018,08,09,16,50,29.10
2018,08,09,16,51,29.00
2018,08,09,16,52,29.00
2018,08,09,16,53,28.90
2018,08,09,16,54,28.80
2018,08,09,16,55,28.80
2018,08,09,16,56,28.80
2018,08,09,16,57,28.70
2018,08,09,16,58,28.70
2018,08,09,16,59,28.70
2018,08,09,17,00,28.70
2018,08,09,17,01,28.70
2018,08,09,17,02,28.70
2018,08,09,17,03,28.70
2018,08,09,17,04,28.70
2018,08,09,17,05,28.70
2018,08,09,17,06,28.70
2018,08,09,17,07,28.70
2018,08,09,17,08,28.70
2018,08,09,17,09,28.70
2018,08,09,17,10,28.70
2018,08,09,17,11,28.70
2018,08,09,17,12,28.70
2018,08,09,17,13,28.70
2018,08,09,17,14,28.70
2018,08,09,17,15,28.70
2018,08,09,17,16,28.70
2018,08,09,17,17,28.80
2018,08,09,17,18,28.80
2018,08,09,17,19,28.80